COSMOS 2411 (GLONASS) 1 28509U 04053B 25182.49702784 -.00000054 00000-0 00000-0 0 9995 2 28509 63.9761 72.5729 0003157 189.4130 2.5313 2.13096758159642 COSMOS 2419 (GLONASS) 1 28915U 05050A 25175.37804501 -.00000072 00000-0 00000-0 0 9993 2 28915 65.7653 328.1281 0013962 336.1745 201.6018 2.13108196151741 COSMOS 2425 (GLONASS) 1 29670U 06062A 25181.59186890 .00000052 00000-0 00000+0 0 9997 2 29670 64.6912 205.9842 0022652 350.0656 12.0137 2.13116329144085 COSMOS 2426 (GLONASS) 1 29671U 06062B 25183.29489318 .00000073 00000-0 00000-0 0 9992 2 29671 64.6985 206.1632 0021661 181.3625 178.3687 2.12963577144097 COSMOS 2424 (GLONASS) 1 29672U 06062C 25183.32607778 .00000074 00000-0 00000-0 0 9990 2 29672 64.6947 205.9416 0019725 176.1108 183.9561 2.13122960144120 COSMOS 2433 (GLONASS) 1 32275U 07052A 25183.31836069 -.00000073 00000-0 00000-0 0 9999 2 32275 65.7692 327.6877 0002718 201.4454 158.5410 2.13104236137607 COSMOS 2432 (GLONASS) 1 32276U 07052B 25183.10684031 -.00000073 00000-0 00000-0 0 9997 2 32276 65.7848 327.8158 0007750 328.7413 174.0151 2.13103251137627 COSMOS 2434 (GLONASS) 1 32393U 07065A 25182.72076260 .00000068 00000-0 00000-0 0 9990 2 32393 64.3167 203.7381 0000726 320.3212 192.5343 2.13101468136307 COSMOS 2435 (GLONASS) 1 32394U 07065B 25183.28548213 .00000076 00000-0 00000-0 0 9994 2 32394 64.3205 203.7141 0024474 354.6527 5.3696 2.13115475136282 COSMOS 2436 (GLONASS) 1 32395U 07065C 25183.45696677 .00000078 00000-0 00000-0 0 9994 2 32395 64.3254 203.7818 0016664 352.7808 138.6656 2.13100312136270 COSMOS 2442 (GLONASS) 1 33378U 08046A 25181.50642336 -.00000070 00000-0 00000-0 0 9996 2 33378 65.6605 326.7224 0017728 304.6328 232.2792 2.13108163130456 COSMOS 2443 (GLONASS) 1 33379U 08046B 25182.34558712 -.00000071 00000-0 00000-0 0 9995 2 33379 65.6714 326.8084 0014609 176.9332 4.8464 2.13098496130471 COSMOS 2444 (GLONASS) 1 33380U 08046C 25183.76684284 -.00000074 00000-0 00000-0 0 9991 2 33380 65.6793 326.8087 0018716 292.2392 58.8978 2.13112305130491 COSMOS 2447 (GLONASS) 1 33466U 08067A 25182.04697685 -.00000040 00000-0 00000-0 0 9991 2 33466 64.6078 81.4412 0006227 262.9229 285.1775 2.13107638128483 COSMOS 2449 (GLONASS) 1 33467U 08067B 25181.40108228 -.00000035 00000-0 00000-0 0 9995 2 33467 64.5962 81.3758 0032853 238.1882 121.5347 2.13096941128461 COSMOS 2448 (GLONASS) 1 33468U 08067C 25183.04560031 -.00000048 00000-0 00000-0 0 9996 2 33468 64.6038 81.3380 0001474 242.8647 117.1620 2.13116614128571 COSMOS 2456 (GLONASS) 1 36111U 09070A 25183.47686461 -.00000048 00000-0 00000-0 0 9992 2 36111 64.8048 82.9207 0004135 330.7992 198.1300 2.13103796120971 COSMOS 2457 (GLONASS) 1 36112U 09070B 25181.38987926 -.00000033 00000-0 00000-0 0 9995 2 36112 64.7890 82.8429 0003349 135.1897 3.3339 2.13101256120932 COSMOS 2458 (GLONASS) 1 36113U 09070C 25182.05808693 -.00000038 00000-0 00000-0 0 9999 2 36113 64.7945 82.8667 0005017 328.9857 217.0250 2.13082921120977 COSMOS 2459 (GLONASS) 1 36400U 10007A 25183.85786104 -.00000075 00000-0 00000-0 0 9992 2 36400 65.6380 326.3746 0024874 346.2674 347.4512 2.13116915119377 COSMOS 2461 (GLONASS) 1 36401U 10007B 25179.97433851 -.00000070 00000-0 00000-0 0 9994 2 36401 65.6348 326.4657 0019942 2.0462 176.2842 2.13106810119294 COSMOS 2460 (GLONASS) 1 36402U 10007C 25183.51422168 -.00000074 00000-0 00000-0 0 9993 2 36402 65.6182 326.2788 0001699 120.7752 204.5015 2.13106346119273 COSMOS 2466 (GLONASS) 1 37137U 10041A 25183.13181295 .00000076 00000-0 00000-0 0 9999 2 37137 63.8935 202.0742 0017811 180.8872 269.4472 2.13112762115383 COSMOS 2465 (GLONASS) 1 37138U 10041B 25182.52201403 .00000067 00000-0 00000-0 0 9996 2 37138 63.9093 202.2475 0040875 181.0990 175.6365 2.13098416115383 COSMOS 2464 (GLONASS) 1 37139U 10041C 25183.24977420 .00000077 00000-0 00000-0 0 9997 2 37139 63.9159 202.2453 0032994 8.9959 39.3849 2.13099185115431 COSMOS 2471 (GLONASS) 1 37372U 11009A 25181.87405094 -.00000071 00000-0 00000-0 0 9996 2 37372 65.6066 326.3373 0008523 328.8204 24.3679 2.12911489111590 COSMOS 2474 (GLONASS) 1 37829U 11055A 25183.18879858 -.00000044 00000-0 00000-0 0 9993 2 37829 65.0896 84.7087 0010239 247.2140 283.2477 2.13101365106994 COSMOS 2476 (GLONASS) 1 37867U 11064A 25183.14540569 -.00000044 00000-0 00000-0 0 9995 2 37867 65.0699 84.7069 0022184 237.6587 306.7036 2.13101618106305 COSMOS 2477 (GLONASS) 1 37868U 11064B 25183.36827178 -.00000045 00000-0 00000-0 0 9995 2 37868 65.0767 84.7753 0019329 238.8642 296.5446 2.13103144106301 COSMOS 2475 (GLONASS) 1 37869U 11064C 25183.38263937 -.00000045 00000-0 00000-0 0 9995 2 37869 65.0835 84.7932 0024679 253.2965 249.8167 2.13101984106312 COSMOS 2478 (GLONASS) 1 37938U 11071A 25181.76870685 -.00000071 00000-0 00000-0 0 9993 2 37938 65.6604 326.7058 0017111 218.8602 112.5613 2.13015604105656